• en France
  • Liste des pays
  • À 7 jours
  • Température de l'eau
  • Carte satellitaire
  • Carte météo
  • Widgets météo
  • user-avatar
    Se connecter

    Météo par heure à Impfondo

    Ce jour, 18 Février, Dimanche

    Heure Température Précipitation Vent Pression Humidité
    00:00 +26°C° 0 mm 1 m/s 729 mmHg 86%
    01:00 +24°C° 0 mm 0 m/s 729 mmHg 87%
    02:00 +23°C° 0 mm 0 m/s 729 mmHg 88%
    03:00 +23°C° 0 mm 0 m/s 729 mmHg 89%
    04:00 +23°C° 0 mm 0 m/s 729 mmHg 90%
    05:00 +23°C° 1,6 mm 0 m/s 729 mmHg 91%
    06:00 +25°C° 1,6 mm 1 m/s 730 mmHg 92%
    07:00 +25°C° 1,6 mm 1 m/s 730 mmHg 93%
    08:00 +26°C° 2,5 mm 1 m/s 731 mmHg 91%
    09:00 +26°C° 2,5 mm 1 m/s 731 mmHg 89%
    10:00 +27°C° 2,5 mm 1 m/s 732 mmHg 87%
    11:00 +28°C° 1,2 mm 1 m/s 731 mmHg 83%
    12:00 +28°C° 1,2 mm 1 m/s 731 mmHg 79%
    13:00 +29°C° 1,2 mm 1 m/s 730 mmHg 74%
    14:00 +29°C° 0,3 mm 1 m/s 730 mmHg 74%
    15:00 +29°C° 0,3 mm 1 m/s 730 mmHg 74%
    16:00 +29°C° 0,3 mm 1 m/s 729 mmHg 74%
    17:00 +28°C° 0,1 mm 1 m/s 729 mmHg 80%
    18:00 +27°C° 0,1 mm 1 m/s 729 mmHg 85%
    19:00 +25°C° 0,1 mm 1 m/s 729 mmHg 91%
    20:00 +25°C° 0 mm 1 m/s 729 mmHg 91%
    21:00 +23°C° 0 mm 0 m/s 729 mmHg 92%
    22:00 +23°C° 0 mm 0 m/s 729 mmHg 92%
    23:00 +22°C° 0 mm 0 m/s 729 mmHg 92%

    Demain, 19 Février, Lundi

    Heure Température Précipitation Vent Pression Humidité
    00:00 +24°C° 0 mm 1 m/s 729 mmHg 91%
    01:00 +24°C° 0 mm 1 m/s 729 mmHg 91%
    02:00 +24°C° 0 mm 1 m/s 729 mmHg 92%
    03:00 +22°C° 0 mm 0 m/s 729 mmHg 93%
    04:00 +22°C° 0 mm 0 m/s 729 mmHg 94%
    05:00 +24°C° 0,2 mm 1 m/s 730 mmHg 94%
    06:00 +24°C° 0,2 mm 1 m/s 730 mmHg 93%
    07:00 +24°C° 0,2 mm 1 m/s 731 mmHg 93%
    08:00 +26°C° 0,1 mm 1 m/s 731 mmHg 85%
    09:00 +27°C° 0,1 mm 1 m/s 732 mmHg 78%
    10:00 +29°C° 0,1 mm 1 m/s 732 mmHg 71%
    11:00 +30°C° 0 mm 1 m/s 731 mmHg 63%
    12:00 +32°C° 0 mm 1 m/s 730 mmHg 56%
    13:00 +35°C° 0 mm 2 m/s 730 mmHg 48%
    14:00 +34°C° 0 mm 1 m/s 729 mmHg 47%
    15:00 +34°C° 0 mm 1 m/s 728 mmHg 47%
    16:00 +33°C° 0 mm 1 m/s 727 mmHg 46%
    17:00 +31°C° 0,6 mm 1 m/s 728 mmHg 57%
    18:00 +29°C° 0,6 mm 1 m/s 728 mmHg 69%
    19:00 +26°C° 0,6 mm 1 m/s 728 mmHg 80%
    20:00 +26°C° 0,6 mm 1 m/s 729 mmHg 84%
    21:00 +26°C° 0,6 mm 1 m/s 730 mmHg 87%
    22:00 +25°C° 0,6 mm 1 m/s 730 mmHg 91%
    23:00 +25°C° 0,2 mm 1 m/s 730 mmHg 92%

    Après-demain, 20 Février, Mardi

    Heure Température Précipitation Vent Pression Humidité
    00:00 +25°C° 0,2 mm 1 m/s 730 mmHg 93%
    01:00 +25°C° 0,2 mm 1 m/s 730 mmHg 94%
    02:00 +24°C° 0,4 mm 1 m/s 729 mmHg 95%
    03:00 +24°C° 0,4 mm 1 m/s 729 mmHg 96%
    04:00 +24°C° 0,4 mm 1 m/s 729 mmHg 97%
    05:00 +24°C° 0 mm 1 m/s 729 mmHg 96%
    06:00 +24°C° 0 mm 1 m/s 729 mmHg 96%
    07:00 +24°C° 0 mm 2 m/s 730 mmHg 95%
    08:00 +26°C° 0 mm 1 m/s 730 mmHg 88%
    09:00 +27°C° 0 mm 1 m/s 730 mmHg 81%
    10:00 +29°C° 0 mm 1 m/s 730 mmHg 74%
    11:00 +31°C° 0 mm 1 m/s 730 mmHg 64%
    12:00 +33°C° 0 mm 1 m/s 729 mmHg 54%
    13:00 +36°C° 0 mm 1 m/s 728 mmHg 45%
    14:00 +36°C° 0 mm 1 m/s 727 mmHg 43%
    15:00 +36°C° 0 mm 1 m/s 727 mmHg 42%
    16:00 +36°C° 0 mm 1 m/s 726 mmHg 41%
    17:00 +33°C° 0 mm 1 m/s 727 mmHg 48%
    18:00 +31°C° 0 mm 1 m/s 727 mmHg 55%
    19:00 +29°C° 0 mm 1 m/s 728 mmHg 62%
    20:00 +28°C° 0,2 mm 1 m/s 728 mmHg 68%
    21:00 +27°C° 0,2 mm 1 m/s 729 mmHg 74%
    22:00 +26°C° 0,2 mm 1 m/s 729 mmHg 80%
    23:00 +26°C° 0,5 mm 1 m/s 729 mmHg 83%

    21 Février, Mercredi

    Heure Température Précipitation Vent Pression Humidité
    00:00 +25°C° 0,5 mm 1 m/s 728 mmHg 86%
    01:00 +25°C° 0,5 mm 1 m/s 728 mmHg 89%
    02:00 +25°C° 0 mm 1 m/s 728 mmHg 90%
    03:00 +24°C° 0 mm 1 m/s 728 mmHg 90%
    04:00 +24°C° 0 mm 1 m/s 728 mmHg 91%
    05:00 +24°C° 0,1 mm 1 m/s 728 mmHg 90%
    06:00 +25°C° 0,1 mm 1 m/s 729 mmHg 89%
    07:00 +25°C° 0,1 mm 1 m/s 730 mmHg 88%
    08:00 +27°C° 0 mm 1 m/s 730 mmHg 78%
    09:00 +30°C° 0 mm 2 m/s 730 mmHg 67%
    10:00 +32°C° 0 mm 2 m/s 731 mmHg 56%
    11:00 +34°C° 0,3 mm 2 m/s 729 mmHg 54%
    12:00 +35°C° 0,3 mm 2 m/s 728 mmHg 51%
    13:00 +36°C° 0,3 mm 2 m/s 727 mmHg 48%
    14:00 +35°C° 0 mm 1 m/s 727 mmHg 48%
    15:00 +35°C° 0 mm 1 m/s 726 mmHg 48%
    16:00 +34°C° 0 mm 1 m/s 726 mmHg 49%
    17:00 +33°C° 0 mm 1 m/s 726 mmHg 55%
    18:00 +31°C° 0 mm 1 m/s 727 mmHg 61%
    19:00 +29°C° 0 mm 1 m/s 727 mmHg 68%
    20:00 +28°C° 1,5 mm 1 m/s 728 mmHg 75%
    21:00 +27°C° 1,5 mm 1 m/s 728 mmHg 82%
    22:00 +26°C° 1,5 mm 1 m/s 728 mmHg 90%
    23:00 +26°C° 1,3 mm 1 m/s 728 mmHg 92%

    22 Février, Jeudi

    Heure Température Précipitation Vent Pression Humidité
    00:00 +25°C° 1,3 mm 1 m/s 728 mmHg 94%
    01:00 +23°C° 1,3 mm 0 m/s 728 mmHg 95%
    02:00 +25°C° 0,1 mm 1 m/s 728 mmHg 95%
    03:00 +25°C° 0,1 mm 1 m/s 728 mmHg 95%
    04:00 +25°C° 0,1 mm 1 m/s 728 mmHg 95%
    05:00 +25°C° 0 mm 1 m/s 728 mmHg 94%
    06:00 +25°C° 0 mm 1 m/s 728 mmHg 93%
    07:00 +26°C° 0 mm 1 m/s 729 mmHg 92%
    08:00 +28°C° 0 mm 1 m/s 729 mmHg 80%
    09:00 +31°C° 0 mm 2 m/s 729 mmHg 67%
    10:00 +34°C° 0 mm 2 m/s 730 mmHg 55%
    11:00 +36°C° 0 mm 2 m/s 729 mmHg 49%
    12:00 +37°C° 0 mm 2 m/s 728 mmHg 44%
    13:00 +39°C° 0 mm 2 m/s 727 mmHg 38%
    14:00 +36°C° 0 mm 1 m/s 727 mmHg 44%
    15:00 +35°C° 0 mm 1 m/s 727 mmHg 49%
    16:00 +33°C° 0 mm 1 m/s 726 mmHg 54%
    17:00 +32°C° 0,1 mm 1 m/s 727 mmHg 60%
    18:00 +30°C° 0,1 mm 1 m/s 727 mmHg 66%
    19:00 +29°C° 0,1 mm 1 m/s 727 mmHg 72%
    20:00 +28°C° 0,3 mm 1 m/s 728 mmHg 76%
    21:00 +27°C° 0,3 mm 1 m/s 728 mmHg 80%
    22:00 +26°C° 0,3 mm 1 m/s 728 mmHg 84%
    23:00 +26°C° 0 mm 1 m/s 728 mmHg 86%

    23 Février, Vendredi

    Heure Température Précipitation Vent Pression Humidité
    00:00 +25°C° 0 mm 1 m/s 727 mmHg 89%
    01:00 +25°C° 0 mm 1 m/s 727 mmHg 92%
    02:00 +25°C° 0,2 mm 1 m/s 728 mmHg 93%
    03:00 +22°C° 0,2 mm 0 m/s 728 mmHg 95%
    04:00 +22°C° 0,2 mm 0 m/s 728 mmHg 97%
    05:00 +22°C° 0,9 mm 0 m/s 729 mmHg 96%
    06:00 +22°C° 0,9 mm 0 m/s 729 mmHg 96%
    07:00 +23°C° 0,9 mm 0 m/s 730 mmHg 96%
    08:00 +26°C° 0,1 mm 0 m/s 730 mmHg 82%
    09:00 +29°C° 0,1 mm 0 m/s 730 mmHg 69%
    10:00 +32°C° 0,1 mm 0 m/s 731 mmHg 55%
    11:00 +35°C° 1,3 mm 1 m/s 730 mmHg 53%
    12:00 +35°C° 1,3 mm 1 m/s 729 mmHg 51%
    13:00 +36°C° 1,3 mm 1 m/s 728 mmHg 49%
    14:00 +35°C° 0,1 mm 1 m/s 728 mmHg 49%
    15:00 +35°C° 0,1 mm 1 m/s 727 mmHg 49%
    16:00 +35°C° 0,1 mm 2 m/s 727 mmHg 48%
    17:00 +32°C° 0 mm 1 m/s 727 mmHg 56%
    18:00 +30°C° 0 mm 1 m/s 727 mmHg 63%
    19:00 +28°C° 0 mm 1 m/s 727 mmHg 70%
    20:00 +27°C° 0,1 mm 1 m/s 727 mmHg 73%
    21:00 +27°C° 0,1 mm 1 m/s 728 mmHg 77%
    22:00 +26°C° 0,1 mm 1 m/s 728 mmHg 80%
    23:00 +26°C° 0 mm 1 m/s 728 mmHg 81%
    Voir plus